Location: Caserta
(41.0670°N, 14.3330°E)
Time: 01:20:48
(UTC+02:00)

STARLINK-1329 - Pass Details

Date: 30 May 2020
Orbit: 549 x 550 km, 53.0° (Epoch: 07 July)

Event Time Altitude Azimuth Distance (km) Brightness Sun altitude
Exits shadow 02:46:16 25° 292° (WNW) 1,149 5.2 -22.5°
Maximum altitude 02:47:50 33° 333° (NNW) 950 5.1 -22.3°
Drops below altitude 10° 02:51:40 10° 39° (NE) 1,856 7.4 -22.0°
Enters shadow 03:49:56 -68° 245° (WSW) 12,394 10.4 -15.8°
